Location: Unspecified
(58.9933°N, 5.6375°E)
Time: 11:21:21
(UTC+01:00)

Cosmos 2058 - Pass Details

Date: 25 January 2018
Orbit: 563 x 585 km, 82.5° (Epoch: 23 February)

Event Time Altitude Azimuth Distance (km) Brightness Sun altitude
Rises 18:19:50 0° 162° (SSE) 2,798 6.4 -12.3°
Reaches altitude 10° 18:22:11 10° 152° (SSE) 1,906 5.4 -12.6°
Maximum altitude 18:25:54 31° 90° (E) 1,039 3.7 -13.1°
Enters shadow 18:29:20 12° 30° (NNE) 1,808 5.0 -13.5°
